TimeCDT,TemperatureF,Dew PointF,Humidity,Sea Level PressureIn,VisibilityMPH,Wind Direction,Wind SpeedMPH,Gust SpeedMPH,PrecipitationIn,Events,Conditions,WindDirDegrees,DateUTC
12:52 AM,39.9,30.9,70,30.32,10.0,North,6.9,-,N/A,,Scattered Clouds,360,2012-10-05 05:52:00
1:52 AM,37.9,30.0,73,30.32,10.0,North,6.9,-,N/A,,Scattered Clouds,360,2012-10-05 06:52:00
2:52 AM,37.4,30.2,75,30.31,10.0,NNW,5.8,-,N/A,,Partly Cloudy,340,2012-10-05 07:52:00
3:52 AM,36.0,28.9,76,30.32,10.0,Calm,Calm,-,N/A,,Partly Cloudy,0,2012-10-05 08:52:00
4:52 AM,37.9,28.9,70,30.32,10.0,Calm,Calm,-,N/A,,Scattered Clouds,0,2012-10-05 09:52:00
5:52 AM,35.1,30.9,85,30.32,10.0,North,4.6,-,N/A,,Scattered Clouds,10,2012-10-05 10:52:00
6:52 AM,36.0,30.0,79,30.34,10.0,Calm,Calm,-,N/A,,Mostly Cloudy,0,2012-10-05 11:52:00
7:52 AM,37.0,30.9,79,30.34,10.0,Calm,Calm,-,N/A,,Overcast,0,2012-10-05 12:52:00
8:52 AM,37.0,30.9,79,30.35,10.0,North,3.5,-,N/A,,Overcast,360,2012-10-05 13:52:00
9:52 AM,39.9,32.0,73,30.35,10.0,NW,3.5,-,N/A,,Overcast,320,2012-10-05 14:52:00
10:52 AM,42.1,28.9,60,30.35,10.0,North,9.2,-,N/A,,Overcast,360,2012-10-05 15:52:00
11:52 AM,44.6,28.4,53,30.35,10.0,NNW,12.7,-,N/A,,Overcast,330,2012-10-05 16:52:00
12:52 PM,45.0,26.1,48,30.37,10.0,NNW,11.5,-,N/A,,Overcast,340,2012-10-05 17:52:00
1:52 PM,48.2,26.6,43,30.33,10.0,North,12.7,-,N/A,,Mostly Cloudy,350,2012-10-05 18:52:00
2:52 PM,50.0,26.1,39,30.31,10.0,NW,15.0,18.4,N/A,,Mostly Cloudy,320,2012-10-05 19:52:00
3:52 PM,51.1,24.1,35,30.29,10.0,NW,12.7,18.4,N/A,,Mostly Cloudy,320,2012-10-05 20:52:00
4:52 PM,51.1,23.0,33,30.27,10.0,NNW,12.7,19.6,N/A,,Mostly Cloudy,330,2012-10-05 21:52:00
5:52 PM,51.1,21.9,32,30.27,10.0,NW,10.4,-,N/A,,Scattered Clouds,310,2012-10-05 22:52:00
6:52 PM,46.9,23.0,39,30.28,10.0,WNW,8.1,-,N/A,,Partly Cloudy,300,2012-10-05 23:52:00
7:52 PM,45.0,24.1,44,30.30,10.0,West,4.6,-,N/A,,Clear,270,2012-10-06 00:52:00
8:52 PM,41.0,28.0,60,30.30,10.0,NW,3.5,-,N/A,,Clear,320,2012-10-06 01:52:00
9:52 PM,39.9,27.0,60,30.31,10.0,NW,4.6,-,N/A,,Clear,320,2012-10-06 02:52:00
10:52 PM,39.0,26.1,60,30.31,10.0,NNW,5.8,-,N/A,,Clear,340,2012-10-06 03:52:00
11:52 PM,35.1,25.0,67,30.34,10.0,NW,4.6,-,N/A,,Clear,320,2012-10-06 04:52:00